Regional Weather Roundup
Issued by NWS

Home | Current Version | Previous Version | Graphics & Text | Print | Product List | Glossary On
Versions: 1 2 3 4 5 6 7 8 9 10 11 12 13 14 15 16 17 18 19 20 21 22 23 24 25 26 27 28 29 30 31 32 33 34 35 36 37 38 39 40 41 42 43 44 45 46 47 48 49 50
000
ASUS43 KOAX 282002
RWRNE

WEATHER ROUNDUP FOR NEBRASKA
NATIONAL WEATHER SERVICE OMAHA NE
200 PM CST TUE FEB 28 2017

NOTES: SATELLITE DATA IS BEING USED TO AUGMENT CLOUD COVER ABOVE
       12000 FEET.
       "FAIR" INDICATES FEW OR NO CLOUDS BELOW 12,000 FEET WITH NO
       SIGNIFICANT WEATHER AND/OR OBSTRUCTIONS TO VISIBILITY.

  * THESE STATIONS DO NOT REPORT WEATHER SUCH AS RAIN...SNOW OR FOG.

NEZ001>004-019>022-054>056-282100-
NEBRASKA PANHANDLE

CITY           SKY/WX    TMP DP  RH WIND       PRES   REMARKS
SCOTTSBLUFF    CLOUDY    33  12  41 W14       29.74F WCI  23
ALLIANCE       CLOUDY    29  16  58 W17       29.70F WCI  17
CHADRON        CLOUDY    28  15  58 W12       29.74F WCI  18
KIMBALL        CLOUDY    33  11  39 NW22G29   29.71S WCI  21
SIDNEY         CLOUDY    35   4  27 NW16      29.73R WCI  25
$$

NEZ057>060-069>072-079>082-282100-
SOUTHWEST NEBRASKA

CITY           SKY/WX    TMP DP  RH WIND       PRES   REMARKS
NORTH PLATTE   CLOUDY    45   8  22 NW13      29.73R
IMPERIAL       CLOUDY    40  10  29 NW16      29.75S WCI  31
LEXINGTON      CLOUDY    43  28  54 NW9       29.71S
MCCOOK         CLOUDY    45  20  36 N13       29.70F
OGALLALA       CLOUDY    39  12  33 NW8       29.76R WCI  33
$$

NEZ005>010-023>029-035>040-094-282100-
NORTH CENTRAL NEBRASKA

CITY           SKY/WX    TMP DP  RH WIND       PRES   REMARKS
VALENTINE      CLOUDY    34  21  59 NW9       29.69S WCI  27
AINSWORTH      CLOUDY    37  26  62 NW10      29.69R WCI  30
BROKEN BOW     CLOUDY    39  30  70 VRB3      29.70R
O`NEILL        MOSUNNY   37  32  83 NW8       29.68F WCI  30
ORD            CLOUDY    41  30  65 NW9       29.68S
THEDFORD       CLOUDY    37  22  54 NW9G20    29.71R WCI  31
$$

NEZ041-046>049-061>064-073>077-083>087-282100-
SOUTH CENTRAL NEBRASKA

CITY           SKY/WX    TMP DP  RH WIND       PRES   REMARKS
GRAND ISLAND   CLOUDY    44  34  67 NW14      29.66F
AURORA         CLOUDY    44  33  66 N16       29.64F
HASTINGS       CLOUDY    45  34  65 N14       29.64F
HEBRON         PTSUNNY   48  38  68 NW9       29.62F
HOLDREGE       CLOUDY    45  30  57 N14       29.68S
KEARNEY *      CLOUDY    45  30  57 NW14      29.68F
YORK           CLOUDY    45  34  65 N12       29.63S
$$

NEZ011>018-030>034-042>045-282100-
NORTHEAST NEBRASKA

CITY           SKY/WX    TMP DP  RH WIND       PRES   REMARKS
NORFOLK        PTSUNNY   38  31  76 NW12      29.64  WCI  30
ALBION         CLOUDY    39  32  75 NW13      29.67R WCI  32
BLAIR          CLOUDY    45  38  76 NW12      29.59F
FREMONT        CLOUDY    43  35  74 NW14      29.62F
TEKAMAH        PTSUNNY   44  36  73 N15       29.62F
WAYNE          CLOUDY    38  33  82 N15       29.65F WCI  29
$$

NEZ050>053-065>068-078-088>093-282100-
SOUTHEAST NEBRASKA

CITY           SKY/WX    TMP DP  RH WIND       PRES   REMARKS
LINCOLN        CLOUDY    47  36  65 N13       29.62F
OMAHA EPPLEY   CLOUDY    46  37  71 N15       29.60F
BEATRICE       CLOUDY    49  40  72 NW9       29.61F
FALLS CITY     CLOUDY    62  43  49 SW13      29.57F
NEBRASKA CITY  CLOUDY    52  41  66 N8        29.59F
PLATTSMOUTH    CLOUDY    46  38  75 NW6       29.61S
$$

NEZ044-045-051>053-067-282100-
OMAHA AREA

CITY           SKY/WX    TMP DP  RH WIND       PRES   REMARKS
OMAHA EPPLEY   CLOUDY    46  37  71 N15       29.60F
BLAIR          CLOUDY    45  38  76 NW12      29.59F
FREMONT        CLOUDY    43  35  74 NW14      29.62F
MILLARD        CLOUDY    48  39  72 NW9       29.60F
OFFUTT AFB     CLOUDY    48  40  73 N8        29.59F
PLATTSMOUTH    CLOUDY    46  38  75 NW6       29.61S
WAHOO          CLOUDY    44  36  73 N15G21    29.61F
$$




USA.gov is the U.S. government's official web portal to all federal, state and local government web resources and services.